Location: Banff
(51.1667°N, 115.5667°W)
Time: 08:08:07
(UTC+00:00)

ISS - Visible Passes

Search period start: 28 November 2022 00:00
Search period end: 08 December 2022 00:00
Orbit: 411 x 420 km, 51.6° (Epoch: 28 November)

Date Brightness Start Highest point End Pass type
(mag) Time Alt. Az. Time Alt. Az. Time Alt. Az.
28 Nov -3.8 00:34:25 10° WSW 00:37:46 86° S 00:40:45 12° E visible
28 Nov -2.8 02:11:12 10° W 02:13:38 45° W 02:13:38 45° W visible
29 Nov -3.9 01:22:31 10° W 01:25:52 81° N 01:26:55 40° E visible
29 Nov -0.5 02:59:17 10° W 02:59:48 14° W 02:59:48 14° W visible
30 Nov -3.8 00:33:48 10° W 00:37:09 80° N 00:40:13 12° E visible
30 Nov -2.8 02:10:34 10° W 02:13:06 46° W 02:13:06 46° W visible
01 Dec -3.8 01:21:50 10° W 01:25:11 83° SSW 01:26:25 36° ESE visible
01 Dec -0.5 02:58:45 10° W 02:59:19 13° W 02:59:19 13° W visible
02 Dec -3.8 00:33:04 10° W 00:36:26 86° N 00:39:46 10° E visible
02 Dec -2.5 02:09:52 10° W 02:12:42 38° SW 02:12:42 38° SW visible
03 Dec -3.2 01:21:02 10° W 01:24:19 54° SSW 01:26:10 23° SE visible
03 Dec -0.4 02:58:37 10° WSW 02:59:04 12° WSW 02:59:04 12° WSW visible
04 Dec -3.5 00:32:13 10° W 00:35:33 71° SSW 00:38:51 10° ESE visible
04 Dec -1.6 02:09:18 10° W 02:11:53 21° SW 02:12:40 19° SSW visible
05 Dec -1.9 01:20:15 10° W 01:23:12 30° SSW 01:26:10 10° SSE visible
06 Dec -2.5 00:31:17 10° W 00:34:28 42° SSW 00:37:37 10° SE visible
06 Dec -0.4 02:10:05 10° SW 02:10:29 10° SW 02:10:53 10° SW visible
07 Dec -0.8 01:19:47 10° WSW 01:21:51 16° SW 01:23:54 10° S visible
